Regional Weather Roundup
Issued by NWS

Home | Current Version | Previous Version | Graphics & Text | Print | Product List | Glossary On
Versions: 1 2 3 4 5 6 7 8 9 10 11 12 13 14 15 16 17 18 19 20 21 22 23 24 25 26 27 28 29 30 31 32 33 34 35 36 37 38 39 40 41 42 43 44 45 46 47 48 49 50
275
ASUS45 KBOU 050807
RWRCO

WEATHER ROUNDUP FOR COLORADO
NATIONAL WEATHER SERVICE DENVER/BOULDER CO
100 AM MST FRI FEB 05 2016

NOTE: "FAIR" INDICATES FEW OR NO CLOUDS BELOW 12000 FEET WITH NO
SIGNIFICANT WEATHER AND/OR OBSTRUCTIONS TO VISIBILITY.

COZ001>005-013-030-031-050900-
...NORTHWEST COLORADO...

CITY           SKY/WX    TMP DP  RH WIND       PRES   REMARKS
CRAIG          LGT SNOW  15  12  88 CALM      30.33R FOG
HAYDEN         CLOUDY    12   9  85 N3        30.30S
MEEKER         LGT SNOW  17  14  88 CALM      30.32S FOG
MOUNT WERNER   NOT AVBL
STEAMBOAT SPGS CLOUDY    11   8  88 CALM      30.29R
WALDEN         CLOUDY    10   3  72 SE5       30.20S WCI   2
$$

COZ006>008-011-050900-
...WEST CENTRAL VALLEYS...

CITY           SKY/WX    TMP DP  RH WIND       PRES   REMARKS
GRAND JUNCTION CLOUDY     6   5  95 E3        30.45R
MONTROSE       CLOUDY    15   9  76 SE5       30.43S WCI   8
EAGLE          CLOUDY    10  10 100 CALM      30.34S
RIFLE          LGT SNOW  16  12  84 SE3       30.40S FOG
DELTA          LGT SNOW  19  16  87 CALM      30.44F
NUCLA          CLOUDY    14  10  85 E5        30.42F WCI   6
$$

COZ017>023-064>068-050900-
...SOUTHWEST COLORADO...

CITY           SKY/WX    TMP DP  RH WIND       PRES   REMARKS
DURANGO        CLOUDY     3  -2  79 N8        30.27F WCI -10
CORTEZ         CLOUDY     2  -2  83 NE9       30.35F WCI -13
PAGOSA SPRINGS CLOUDY     2  -2  83 CALM      30.23F
TELLURIDE      LGT SNOW  10   7  87 CALM      30.25S
WOLF CREEK PAS CLOUDY     3   0  85 NE8       30.11F WCI -10
$$

COZ009-010-012-014-032>034-037-058>063-050900-
...CENTRAL COLORADO...

CITY           SKY/WX    TMP DP  RH WIND       PRES   REMARKS
ASPEN          CLOUDY    11   7  84 NW3       30.25S
BUENA VISTA    CLOUDY    15   3  58 NW14      30.17R WCI   1
COPPER MTN     CLOUDY     5  -4  66 W18G28    30.05F HAZE    WCI -15
BERTHOUD PASS  CLOUDY    -4 -13  65 NW39G47   29.98R WCI -34
COTTONWOOD PAS CLOUDY    16   3  57 W6        30.10S WCI   7
GUNNISON       CLOUDY    -6  -9  84 N5        30.31F WCI -17
KREMMLING      FLURRIES   3  -2  78 CALM      30.28S
LEADVILLE      LGT SNOW   5   1  83 N8        30.12S FOG     WCI  -8
MONARCH PASS   CLOUDY     0  -6  78 MISG      30.15F
SALIDA         CLOUDY    17   5  60 W10       30.25S WCI   4
SUNLIGHT       LGT SNOW N/A N/A N/A SW3         N/A
WILKERSON PASS CLOUDY     7   0  72 NW12G23   30.06F WCI  -9
$$

COZ069>075-050900-
...SAN LUIS VALLEY/SANGRE DE CRISTO MOUNTAINS...

CITY           SKY/WX    TMP DP  RH WIND       PRES   REMARKS
ALAMOSA        CLOUDY    -1  -6  79 SW6       30.20F WCI -13
LA VETA PASS   LGT SNOW   5   0  78 MISG      30.06S
SAGUACHE       CLOUDY    14   5  67 NW13      30.19F WCI   0
$$

COZ035-036-038>040-050900-
...NORTHERN COLORADO FRONT RANGE...

CITY           SKY/WX    TMP DP  RH WIND       PRES   REMARKS
DENVER INTL AP CLOUDY    22  11  62 E5        30.18F WCI  16
DMNS CITY PARK   N/A     26  12  56 SE8       30.18F WCI  17
AURORA         CLOUDY    24  16  72 S7        30.17F WCI  15
FRONT RANGE AP   N/A     19  14  79 E3        30.19F
ERIE MUNI ARPT CLOUDY    23  13  67 CALM      30.19S
BOULDER MUN AP CLOUDY    28   9  43 CALM      30.17F
CENTENNIAL     CLOUDY    24  16  71 CALM      30.17S
BROOMFIELD     CLOUDY    27  10  50 CALM      30.17F
FORT COLLINS   CLOUDY    19  12  73 SW6       30.19S WCI  11
LONGMONT       CLOUDY    23  14  70 CALM      30.21R
$$

COZ041-046-047-076>085-087-088-050900-
...PIKES PEAK/PALMER DIVIDE AND SOUTHERN FOOTHILLS...

CITY           SKY/WX    TMP DP  RH WIND       PRES   REMARKS
COLO. SPRINGS  LGT SNOW  23  20  88 N6        30.18S FOG     WCI  16
A. F. ACADEMY  FLURRIES  21  19  93 N5        30.15F WCI  15
SCHRIEVER AFB  LGT SNOW  22  20  93 N6        30.17  WCI  14
ELLICOTT       NOT AVBL
FALCON         CLOUDY    20  19  96 N3        30.16S
FORT CARSON    SNOW      22  21  94 N7        30.17S VSB 1/2 WCI  14
LIMON          LGT SNOW  20  19  96 E6        30.20F FOG     WCI  12
MONUMENT HILL  CLOUDY    19  18  93 W3        30.16F
TRINIDAD       CLOUDY    28   8  43 NW9       30.12S WCI  19
$$

COZ042>045-048>051-090-091-050900-
...NORTHEAST COLORADO...

CITY           SKY/WX    TMP DP  RH WIND       PRES   REMARKS
GREELEY ARPT   CLOUDY    21  14  73 S3        30.21F
AKRON          LGT SNOW  22  21  96 W14       30.20S FOG     WCI   9
BURLINGTON     CLOUDY    23  14  68 NW9       30.23R WCI  13
WRAY           FLURRIES  28  23  81 W10       30.25S WCI  19
STERLING       LGT SNOW  25  23  93 SW12      30.20F WCI  14
HOLYOKE        LGT SNOW  32  28  86 SW13      30.21F WCI  22
FORT MORGAN    CLOUDY    21  19  91 SW3       30.22F
$$

COZ086-089-092>099-050900-
...SOUTHEAST COLORADO...

CITY           SKY/WX    TMP DP  RH WIND       PRES   REMARKS
PUEBLO         CLOUDY    28  21  75 N17       30.19S WCI  16
LA JUNTA       CLOUDY    25  14  63 N10       30.17S WCI  15
LAMAR          CLOUDY    25  18  74 E3        30.18S
SPRINGFIELD      N/A     25  14  63 CALM      30.13F
$$




USA.gov is the U.S. government's official web portal to all federal, state and local government web resources and services.